THOR ABLESTAR DEB, 414

Orbit data source: Space-Track

THOR ABLESTAR DEB, 414 is space debris in LEO originally from a launch on Thu, 29 Jun 1961 UTC launched from the Air Force Eastern Test Range (AFETR). Debris objects in space refer to the collection of defunct objects orbiting the Earth. Examples of debris include non-operational satellites, rocket bodies, and fragments generated from explosions, collisions, or faulty payload assembly.

Loading next visibility...
Identifier
414, 1961-015EP
Orbit
LEO
Country
Flag of USUS
Related business
Manufacturer
Unknown
Mission
Spacecraft
Bus & Motor
Unknown
Mass
Unknown
Launch date (UTC)
1961-06-29 (64 years ago)
Launch vehicle
Unknown
Launch site
Air Force Eastern Test Range (AFETR)
Object type
Payload
Rocket body
Debris
Shape & HBR
Unknown
Radar Cross Section
Medium (>0.1 m² and <1 m²)

Expand to show TLE details & history
Last TLE update: 1 day ago

TLE from 1 day ago
0 THOR ABLESTAR DEB
1 00414U 61015EP  25261.05536177  .00000021  00000-0  96831-4 0  9996
2 00414  66.4449  45.9337 0054988 278.7766 187.3694 13.77535163224548
Epoch: 2025-09-18T01:19Z
TLE epoch observation values (Epoch: 2025-09-18T01:19:43.256Z)
Latitude
61.86145°
Longitude
154.59274°
Altitude
1,022.466 km
Speed
7.327 km/s
True Right ascension
11h 26m 58s
True Declination
61° 43' 24"
Sunlit
Object was in daylight at epoch
Visualization orbit readout
Latitude
Unknown
Longitude
Unknown
Altitude
Unknown
Speed
Unknown
Apparent Right ascension
Unknown
Apparent Declination
Unknown
Sunlit
N/A
Visualization observer readout
Local Sidereal Time
18:52:15
Azimuth
Unknown
Elevation
Unknown
Doppler factor
Unknown
Orbital elements
Apogee altitude
1,011.498 km
Perigee altitude
930.675 km
Semi-major axis
7,349.223 km
Eccentricity
0.0055
Inclination
66.4449°
RAAN
45.9337°
Arg. of periapsis
278.7766°
True anomaly
187.28912°
Mean anomaly
187.3694°
Eccentric anomaly
187.32921°
Mean motion
3.44493 °/min
Orbital period
104.5 mins
BSTAR
0.000096831
Loading maneuver chart data...
Computing Atmospheric mass density...

Documentation

Showing up to 5 results
|